Regional Weather Roundup
Issued by NWS Sterling, VA

Home | Current Version | Previous Version | Text Only | Print | Product List | Glossary Off
Versions: 1 2 3 4 5 6 7 8 9 10 11 12 13 14 15 16 17 18 19 20 21 22 23 24 25 26 27 28 29 30 31 32 33 34 35 36 37 38 39 40 41 42 43 44 45 46 47 48 49 50

000
ASUS41 KLWX 160211
RWRLWX

REGIONAL WEATHER ROUNDUP
NATIONAL WEATHER SERVICE BALTIMORE MD/WASHINGTON DC
1000 PM EDT SUN OCT 15 2017

Note: "FAIR" indicates few or no clouds below 12,000 feet
with no significant weather and/or obstructions to visibility.
 TC=TEMPERATURE CELSIUS

 * =Non NWS site. Station does not report precipitation (e.g. rain,
    snow, etc.), thunder, or fog.

DCZ001-MDZ009-015-VAZ040>042-051-053>054-160300-
WASHINGTON METRO

CITY           SKY/WX    TMP DP  RH WIND       PRES   REMARKS
WASHINGTON NAT PTCLDY    73  66  78 S12       29.87S
DULLES         MOCLDY    71  66  84 S13       29.86S
ANDREWS AFB    CLEAR     70  64  80 S13       29.87S
FT BELVOIR     CLEAR     72  64  78 S6        29.87F
QUANTICO       CLEAR     74  66  76 SW8       29.89S
COLLEGE PARK*  CLEAR     72  63  73 CALM      29.86S
LEESBURG*      CLOUDY    73  68  83 SW10      29.86F
MANASSAS*      PTCLDY    70  65  84 S5        29.88S
GAITHERSBURG*  CLOUDY    72  65  78 S8        29.87S

$$

MDZ006>007-011-014-160300-
BALTIMORE METRO

CITY           SKY/WX    TMP DP  RH WIND       PRES   REMARKS
BWI AIRPORT    PTCLDY    70  66  87 S7        29.85S
MD SCIENCE CTR   N/A     73  66  78 MISG      29.85S
MARTIN STATE   CLEAR     72  70  94 S6        29.87S
ANNAPOLIS      CLEAR     73  69  87 S6        29.86R
FORT MEADE*    CLEAR     63  63 100 S5        29.88F

$$

MDZ012-015-019>023-160300-
MARYLAND EASTERN SHORE

CITY           SKY/WX    TMP DP  RH WIND       PRES   REMARKS
OCEAN CITY     CLEAR     71  69  93 SW10      29.93S
SALISBURY      CLEAR     67  66  97 S6        29.91F
CAMBRIDGE*     CLEAR     72  68  88 S9        29.89F
EASTON*        CLEAR     72  66  83 SW9       29.92S

$$

MDZ017>025-160300-
SOUTHERN MARYLAND

CITY           SKY/WX    TMP DP  RH WIND       PRES   REMARKS
PATUXENT RIVER CLEAR     73  66  78 S13       29.89F
ST INIGOES     CLEAR     74  67  78 S10       29.89F
LEONARDTOWN*   NOT AVBL

$$

MDZ003>005-160300-
NORTH CENTRAL MARYLAND

CITY           SKY/WX    TMP DP  RH WIND       PRES   REMARKS
FREDERICK*     CLOUDY    73  63  68 S8        29.86F
HAGERSTOWN APT CLOUDY    74  65  73 S8        29.83S
WESTMINSTER*   MOCLDY    70  66  88 S8        29.85F

$$

MDZ501>502-160300-
WESTERN MARYLAND

CITY           SKY/WX    TMP DP  RH WIND       PRES   REMARKS
OAKLAND*       CLOUDY    54  54 100 NW9G16    29.96R
CUMBERLAND*    CLOUDY    70  63  78 NW5G21    29.94R

$$

VAZ025>031-160300-
SHENANDOAH VALLEY

CITY           SKY/WX    TMP DP  RH WIND       PRES   REMARKS
WINCHESTER*    CLOUDY    70  61  73 S5        29.85S
FRONT ROYAL*   MOCLDY    73  63  68 SW6       29.85S
LURAY*         CLOUDY    72  63  73 SW6       29.88S
NEW MARKET*    CLOUDY    73  62  69 SW8       29.88S
STAUNTON*      PTCLDY    69  63  81 S6        29.93F
WAYNESBORO*    PTCLDY    70  64  81 S7        29.94F

$$

WVZ021-048>050-054>055-160300-
EASTERN WEST VIRGINIA PANHANDLE

CITY           SKY/WX    TMP DP  RH WIND       PRES   REMARKS
MARTINSBURG    CLOUDY    70  64  81 SW3       29.83S
PETERSBURG*    LGT RAIN  70  63  79 NW9       29.91R

$$

VAZ036>039-050-160300-
CENTRAL FOOTHILLS

CITY           SKY/WX    TMP DP  RH WIND       PRES   REMARKS
CHARLOTTESVILL MOCLDY    72  66  81 S7        29.90F
CULPEPER*      CLOUDY    73  65  78 SW7       29.90S
ORANGE*        CLEAR     70  64  83 CALM      29.90F
GORDONSVILLE*  PTCLDY    70  67  90 SW5       29.91S
WARRENTON*     PTCLDY    73  64  72 SW9       29.88S

$$

VAZ055>057-160300-
NORTH AND CENTRAL PIEDMONT

CITY           SKY/WX    TMP DP  RH WIND       PRES   REMARKS
FREDERICKSBRG* CLEAR     73  66  78 SW8G16    29.89S
STAFFORD*      CLEAR     70  66  87 S5        29.93S

$$

NCZ024-NYZ072-PAZ021-071-VAZ022-071-160300-
OTHER REGIONAL OBSERVATIONS

CITY           SKY/WX    TMP DP  RH WIND       PRES   REMARKS
NEW YORK CITY  CLOUDY    69  63  81 MISG      29.86R
PHILADELPHIA   CLEAR     70  65  84 SW10      29.85R
PITTSBURGH     CLOUDY    59  51  75 NW15      29.98R
ROANOKE        MOCLDY    72  61  68 SW6       29.98F
RICHMOND       CLEAR     71  66  84 S13       29.93F
RALEIGH        CLEAR     71  66  84 SW8       30.03R

$$

ANZ530>537-160300-
MARINE OBSERVATIONS

STATION/POSITION TIME  TEMP    WIND        PRES
                       AIR SEA DIR/SP/G
                 (UTC) (F)     (DEG/KT/KT) (MB)
THOMAS PT LIGHT  0200   73 70  200/ 16/ 17   N/A
BALT KEY BRIDGE  0148   71     190/ 11/ 13 1010.4S
COVE POINT       0148   74     220/ 18/ 22 1012.6F
LEWISETTA        0148   73 71  230/ 13/ 15 1012.6S
SOLOMONS ISLAND  0148          200/ 14/ 17   N/A
PINEY POINT      0148          230/ 20/ 23   N/A

$$




USA.gov is the U.S. government's official web portal to all federal, state and local government web resources and services.